RH
8 7 7 7 6 6 6 6 6 5 6 6 6 6 6 6 6 5 6 5 6 6 6 6 6 6 7 7 8 9 10 11 11 12 14 18 22 23 22 22 22 19 17 15 14 14 13 12 10 10 9 8 7 7 6 6 5 5 4 4 3 4 3 3 3 2 3 3 2 2 2 2 2 1
7 7 7 6 6 6 6 6 6 6 6 6 6 6 6 6 6 6 6 5 5 5 5 6 5 6 6 6 7 7 8 11 12 12 12 16 21 24 25 25 24 23 20 17 16 16 15 15 14 12 11 10 10 10 8 7 7 6 5 4 4 4 4 3 4 3 3 3 3 2 2 2 2 2
7 7 6 6 6 6 6 6 6 6 6 6 6 6 6 6 6 6 6 6 5 5 5 5 5 5 5 5 6 7 7 8 11 13 13 14 18 23 26 27 27 25 23 21 18 17 17 17 18 17 15 15 13 12 11 9 8 7 6 6 5 5 5 4 4 4 4 3 3 3 2 2 2 2
8 7 7 7 6 6 7 6 6 6 6 6 6 7 7 6 7 7 7 6 5 5 5 5 5 5 5 6 5 5 6 7 9 13 16 15 16 21 24 27 29 28 26 24 22 21 20 20 22 23 22 20 17 15 13 11 10 9 8 8 7 7 6 6 5 5 5 5 4 3 3 3 2 2
9 8 8 7 7 7 7 6 7 7 6 6 7 7 7 7 8 8 8 7 6 6 5 5 5 5 7 9 7 5 6 7 8 12 20 23 19 19 24 27 29 30 29 28 26 25 25 25 26 29 30 28 24 19 15 13 11 11 11 10 10 9 8 7 7 6 5 5 5 4 3 3 3 3
10 10 9 8 7 8 7 7 7 7 7 8 8 8 9 9 9 9 12 11 7 5 6 6 5 5 10 11 7 6 6 8 11 13 20 28 27 22 25 27 26 28 32 33 30 28 28 30 32 35 37 35 30 24 19 15 13 12 12 12 11 10 10 9 7 7 6 5 5 4 4 4 3 3
15 15 13 11 10 11 11 11 9 8 9 9 10 11 12 13 11 11 17 22 19 9 5 8 6 4 12 15 9 7 8 11 18 19 18 25 30 27 27 30 29 26 31 37 37 32 30 33 37 40 42 39 34 28 22 17 15 13 13 13 12 11 11 10 8 7 6 5 5 5 4 4 3 3
28 27 23 19 19 20 19 18 16 15 13 14 16 16 17 19 17 14 17 26 33 25 11 6 7 7 13 18 14 9 10 16 21 24 23 25 28 28 29 35 36 31 30 37 43 40 34 35 41 45 48 45 37 29 24 19 16 15 14 13 13 13 11 9 7 7 6 6 6 5 5 5 4 3
43 42 38 34 33 33 31 28 26 26 25 26 27 24 23 24 24 23 21 22 39 53 40 15 5 7 11 19 23 17 16 25 28 27 31 34 33 31 30 33 38 39 35 36 44 47 42 40 44 48 49 47 41 32 25 21 17 15 15 14 14 13 11 9 8 8 9 8 8 7 6 5 4 4
57 56 52 49 47 46 43 39 36 35 35 35 36 33 30 29 30 32 30 31 47 63 52 31 18 9 4 15 26 23 22 31 37 40 46 47 40 34 31 30 34 40 43 46 53 55 50 46 46 47 46 43 41 35 28 23 19 17 17 16 15 14 11 10 10 10 11 9 8 8 6 6 6 5
66 65 62 60 57 56 54 49 46 45 43 43 42 39 36 35 36 36 37 46 63 65 49 41 39 20 3 9 17 21 37 47 47 57 61 49 41 40 39 39 38 36 40 53 67 68 58 51 47 45 44 42 41 39 33 28 23 20 19 18 16 15 14 13 13 12 12 10 9 8 7 7 7 6
72 70 68 66 64 63 62 58 56 54 53 51 48 47 45 43 42 44 44 47 63 77 64 45 38 23 7 9 8 16 52 62 42 52 71 62 55 57 48 43 42 33 30 49 76 81 70 59 50 45 45 45 44 43 39 34 29 24 22 19 18 17 17 17 16 14 13 12 10 10 10 10 10 10
70 69 68 67 66 66 65 63 60 58 58 56 52 50 50 50 50 50 51 46 49 74 86 65 44 30 11 8 8 10 44 65 46 57 90 87 75 72 55 41 41 34 30 50 76 84 78 70 59 50 48 48 50 51 46 40 33 27 23 21 19 20 20 19 18 16 15 14 14 15 15 15 14 14
67 66 65 64 63 63 64 63 62 60 60 59 56 52 50 52 54 51 56 57 47 61 95 92 70 55 24 6 10 6 29 76 83 81 101 99 85 82 63 43 40 32 35 64 85 86 86 81 69 57 50 47 51 53 49 41 34 28 25 22 20 22 23 22 21 21 20 20 21 21 20 20 19 18
67 66 65 64 61 60 60 61 62 61 61 61 58 56 53 49 53 55 55 59 50 54 87 97 88 83 45 6 10 8 19 74 102 94 102 104 91 82 61 46 46 36 40 78 99 93 90 85 72 61 51 46 48 48 44 40 35 29 25 23 24 26 27 27 27 26 26 27 27 26 24 23 21 21
72 71 69 68 64 61 60 61 62 61 61 63 60 59 58 50 50 54 52 56 54 51 71 88 89 89 60 19 12 7 12 63 100 99 104 104 90 76 57 50 54 42 46 84 103 94 90 85 73 63 55 50 51 48 45 43 38 31 27 27 30 31 31 30 30 30 30 29 28 26 25 22 20 20
87 84 81 80 75 68 64 63 66 64 59 64 66 63 63 56 51 52 50 54 57 51 65 85 81 75 66 36 13 12 34 77 102 101 102 100 88 74 58 51 51 47 60 92 102 94 90 87 80 72 69 69 65 58 53 48 41 34 31 33 35 34 32 31 30 29 28 26 24 22 20 18 17 16
99 96 96 98 88 74 65 64 70 72 65 64 70 71 69 61 55 53 49 50 56 55 66 81 72 65 66 45 28 48 81 98 102 101 101 101 91 75 59 51 47 50 72 97 99 92 92 95 92 84 83 85 77 64 57 48 40 37 36 37 36 33 31 30 27 25 23 20 19 17 15 14 14 13
101 101 100 96 83 70 67 69 75 80 75 71 74 78 76 68 60 56 51 50 54 53 58 67 62 57 61 58 66 92 105 100 99 102 101 100 92 73 58 47 39 48 78 98 97 94 97 102 99 90 88 87 74 61 54 46 41 40 39 36 34 30 28 25 22 20 18 16 15 14 14 14 13 13
101 100 95 88 80 74 73 76 81 86 87 86 86 85 81 74 67 60 52 51 54 53 56 65 68 67 72 83 96 104 101 98 102 103 101 96 85 68 53 42 37 57 88 101 100 100 102 103 100 93 88 80 65 55 51 45 43 40 35 32 29 25 22 20 18 17 16 15 15 14 15 15 15 15
94 86 86 89 91 87 79 77 81 88 97 101 98 94 87 81 77 69 59 57 57 56 58 69 80 88 93 99 103 100 99 101 102 101 97 88 77 67 53 41 51 79 99 102 101 103 102 102 100 93 83 69 57 51 47 42 40 35 31 28 24 21 21 19 18 18 17 17 18 17 18 18 17 18
85 77 86 98 101 92 83 83 88 93 100 105 103 99 94 90 86 78 70 64 60 64 76 86 94 99 100 100 101 99 100 102 101 101 95 82 77 69 50 44 69 95 103 101 101 102 101 101 96 85 71 59 52 47 42 38 35 31 28 26 23 22 22 22 21 21 20 21 22 22 22 22 21 20
80 85 96 103 101 94 88 92 98 99 100 102 102 101 100 98 94 89 83 74 66 76 96 103 101 101 101 100 101 100 101 102 102 101 94 83 76 64 47 56 86 102 101 101 102 101 100 95 84 71 60 52 47 43 39 35 33 31 29 27 26 26 25 25 25 25 25 26 26 25 25 24 23 22
87 96 102 101 99 95 93 98 102 100 100 101 101 101 101 100 99 98 99 93 84 89 101 103 101 101 100 100 101 100 101 103 100 96 91 84 71 55 51 72 96 102 100 101 102 100 94 83 70 61 54 48 45 42 39 36 34 32 31 29 28 29 28 28 28 28 28 28 27 26 25 24 23 22
97 99 100 100 98 95 96 101 101 99 100 100 100 101 100 99 99 101 103 103 98 97 100 101 101 100 100 101 101 100 102 103 97 90 88 80 62 53 66 90 102 101 100 101 100 93 83 70 61 56 52 48 46 43 41 38 36 34 33 32 31 31 30 30 30 30 29 28 27 26 24 23 23 22
99 98 99 99 98 98 100 101 100 100 100 100 100 99 96 96 98 100 101 102 101 99 100 101 101 100 100 101 100 100 102 102 97 91 81 66 55 63 86 101 101 99 100 101 96 84 71 63 59 54 52 51 49 46 42 39 38 36 35 34 33 32 32 32 31 30 28 26 25 24 22 21 21 21
101 101 101 98 97 100 101 100 100 101 101 100 99 98 96 96 98 101 102 101 100 100 101 101 100 99 100 100 101 102 102 101 98 86 66 55 64 85 100 101 99 101 101 96 88 76 65 61 58 54 53 52 50 47 43 41 39 38 37 35 34 33 32 31 29 27 25 23 21 20 20 19 18 17
102 103 101 99 99 100 101 100 101 101 100 99 99 98 100 100 100 102 103 101 100 101 101 99 99 99 100 102 103 103 99 93 82 66 56 66 87 100 101 99 100 103 100 91 80 69 63 61 59 56 55 53 50 47 45 43 41 39 37 36 34 32 30 28 26 25 23 22 21 20 19 18 17 17
102 103 102 99 99 100 100 100 100 100 100 100 100 100 101 101 101 102 101 100 100 101 100 100 100 100 101 102 100 96 88 73 62 62 75 92 102 101 99 101 102 101 97 86 74 66 63 63 61 58 55 53 50 48 46 44 42 40 38 35 33 32 29 28 28 28 26 24 22 21 20 19 18 17
100 102 102 99 99 100 100 100 100 100 100 100 100 100 100 99 99 100 99 99 101 101 100 100 100 101 103 104 98 89 79 69 70 85 98 102 101 100 101 102 101 97 89 78 71 69 67 65 63 60 56 52 51 49 47 44 42 40 38 36 36 35 32 31 32 32 31 29 26 25 23 22 20 19
99 102 97 89 93 99 100 100 100 100 100 100 101 100 98 96 96 98 100 101 100 100 100 101 103 104 104 100 93 87 87 89 93 100 102 100 100 102 101 100 99 92 80 73 73 73 69 65 64 60 55 53 53 50 47 44 43 43 42 41 41 40 39 40 41 40 38 36 32 29 26 23 22 22
100 101 87 79 90 100 100 99 100 100 101 101 101 100 100 100 100 100 101 101 100 102 103 103 103 101 96 94 94 96 100 104 103 101 100 100 101 101 100 101 97 86 77 75 77 75 69 65 63 60 58 57 54 50 46 45 46 49 49 49 49 47 47 49 47 43 41 40 37 33 29 26 25 27
101 100 89 87 97 102 100 101 102 100 100 99 98 97 97 97 98 100 102 102 102 102 100 96 93 91 89 93 100 104 105 104 102 100 100 101 101 102 102 100 92 83 78 78 78 73 68 65 64 64 63 59 53 49 49 50 53 56 57 57 55 52 52 52 49 45 46 48 46 42 40 40 43 48
101 101 98 97 101 101 101 103 102 98 96 94 95 96 92 86 88 95 97 93 93 95 95 91 89 89 92 97 102 103 103 101 100 100 101 100 101 102 100 96 90 85 82 81 77 71 67 67 67 68 64 58 53 53 54 55 60 65 64 61 60 58 58 57 53 51 54 56 57 58 58 64 73 78
101 103 102 100 101 100 101 102 102 100 99 97 98 101 95 84 84 89 86 82 86 95 98 97 97 97 98 100 102 102 100 99 100 101 100 101 102 102 99 94 90 87 85 81 75 70 69 70 69 68 65 59 56 59 61 63 70 77 74 69 67 65 64 63 59 56 56 58 63 70 73 78 90 96
100 101 101 98 98 100 101 101 99 96 97 99 100 102 99 93 92 93 90 88 95 101 101 100 101 101 100 101 101 100 100 100 101 101 100 102 103 101 97 94 93 91 86 79 74 72 73 72 70 67 63 58 61 69 71 68 75 85 84 76 73 72 73 74 66 55 51 54 63 75 82 85 92 100
98 98 99 96 94 97 99 100 98 94 95 99 101 101 100 100 100 101 100 100 101 102 100 100 100 100 100 101 100 100 101 100 100 100 101 102 100 97 95 96 96 92 84 77 76 76 75 72 68 63 59 59 66 76 78 74 79 89 87 82 83 84 82 78 65 51 48 53 62 76 86 87 91 98
95 93 97 98 96 97 98 95 92 90 88 92 97 99 100 101 101 101 102 102 101 100 100 100 100 100 100 101 100 100 101 100 101 102 102 99 98 97 97 99 96 89 81 76 75 76 75 72 65 57 57 62 69 78 82 81 84 88 88 89 94 90 81 73 64 57 60 65 68 77 86 86 87 94
95 88 89 90 90 92 91 87 83 82 83 88 95 100 100 100 100 100 101 100 100 100 100 100 100 100 100 100 100 101 101 100 102 103 101 99 99 100 100 99 93 85 79 76 74 74 75 69 57 51 58 68 75 82 87 88 89 90 90 94 97 90 80 74 67 63 73 82 82 86 92 88 85 89
101 94 90 87 85 85 86 85 87 93 96 97 99 100 100 100 100 100 101 100 100 100 100 100 100 100 100 100 100 100 100 100 102 103 101 101 102 102 102 99 90 82 79 76 73 73 71 61 52 55 65 73 76 80 86 91 94 94 91 93 96 91 85 82 72 64 74 92 96 96 98 95 91 92
101 100 99 97 96 96 94 93 97 102 103 102 101 100 100 100 98 98 100 100 100 100 100 100 101 100 100 100 100 100 100 101 102 103 102 102 103 102 102 99 90 83 81 77 73 72 67 58 56 62 68 70 73 79 84 88 90 89 87 89 94 93 89 86 77 67 72 88 95 95 97 98 96 95
99 101 101 100 101 103 103 100 100 102 103 102 101 100 100 100 98 98 99 100 101 100 100 100 100 100 100 100 100 100 101 101 102 102 101 101 101 101 103 101 92 85 82 77 73 70 62 55 58 61 59 62 74 84 87 87 85 84 84 86 89 93 94 88 78 69 72 83 92 94 95 95 95 95
97 99 101 101 100 101 101 101 100 101 102 101 100 100 100 101 100 99 100 100 100 100 100 100 100 100 100 100 100 100 101 100 101 101 100 101 101 101 103 103 97 90 85 78 72 66 56 51 53 52 49 57 72 81 85 88 86 83 84 84 84 90 96 91 78 70 71 81 91 97 98 97 96 95
97 95 96 98 100 100 100 100 101 100 100 101 101 100 100 100 100 100 100 100 100 100 100 100 100 100 100 100 100 100 101 100 100 101 100 100 101 101 102 103 101 99 92 80 69 62 55 51 51 48 46 52 62 67 75 87 89 85 84 81 77 81 88 85 76 70 71 77 87 95 99 100 97 93
99 96 92 92 94 97 99 100 100 100 100 100 100 100 100 100 100 101 100 100 100 100 100 100 100 100 100 100 100 100 101 100 100 100 100 100 100 101 102 103 103 103 99 89 76 66 59 55 54 52 49 51 52 54 64 78 86 88 87 81 73 74 77 75 71 71 71 74 82 91 98 101 99 95
Wind_Speed
67 67 67 68 69 69 69 69 69 69 69 69 69 69 69 70 71 72 73 73 71 67 66 66 64 63 61 60 60 61 60 59 58 58 57 58 60 61 61 61 62 63 64 65 65 66 67 66 66 65 65 64 64 62 61 60 59 59 59 59 59 58 57 57 56 56 55 55 56 56 56 56 56 55
67 67 67 67 68 68 68 69 69 69 69 69 69 69 69 69 70 71 73 74 72 68 66 66 64 63 62 60 60 61 61 60 59 58 57 57 59 60 60 60 61 63 64 65 66 66 67 67 66 67 66 65 64 63 62 60 59 59 60 60 60 59 59 58 57 57 57 56 57 58 58 57 57 55
67 68 68 67 67 67 67 68 68 69 69 69 68 68 69 69 69 70 71 73 72 69 67 66 63 62 62 61 59 60 61 61 59 57 57 57 57 59 59 59 61 63 64 65 66 66 66 66 67 67 66 65 64 63 62 61 60 59 60 60 60 60 60 59 59 58 57 57 58 59 59 58 57 55
66 67 67 67 67 67 67 68 68 69 69 68 68 68 68 68 68 69 70 72 72 69 68 66 63 62 63 63 61 59 60 62 61 57 56 55 56 57 57 58 60 62 63 64 65 65 65 65 66 66 66 66 65 64 62 61 60 59 59 59 60 60 60 60 60 59 59 59 59 60 59 58 57 55
64 65 66 67 67 67 67 67 67 68 68 68 68 67 67 67 67 68 70 72 72 70 68 65 62 62 62 63 63 61 59 61 62 59 55 53 54 55 55 57 59 60 62 63 64 64 64 64 65 65 66 66 65 63 62 60 59 58 58 59 59 60 61 61 61 61 60 60 60 59 59 58 57 56
62 63 64 65 65 66 67 67 67 66 66 67 68 67 66 66 66 66 66 69 71 71 68 64 62 62 62 62 64 63 60 59 61 60 56 53 52 53 53 55 58 58 60 61 62 63 64 64 64 64 64 65 64 63 61 60 59 58 58 59 60 60 60 61 61 61 61 60 59 59 58 58 57 56
61 62 62 62 62 63 65 66 66 66 65 65 66 67 66 65 66 65 63 63 66 70 68 65 63 62 62 62 64 65 62 59 59 60 58 55 53 52 51 51 55 57 58 59 61 62 63 63 63 64 64 64 63 62 60 59 58 57 58 59 60 60 60 60 60 60 60 60 59 58 58 57 57 56
60 60 60 60 60 61 63 63 64 64 64 64 64 65 65 65 65 65 64 61 60 63 67 67 64 62 62 62 63 65 63 60 60 60 58 56 54 53 50 48 51 55 56 58 59 61 62 62 63 63 63 63 62 61 60 58 57 56 57 58 58 59 59 59 59 58 58 58 58 58 57 57 57 56
58 59 59 59 59 60 61 61 61 62 63 62 62 63 64 64 64 63 64 62 56 54 58 63 65 63 61 61 63 66 64 61 61 60 58 55 54 52 51 49 48 51 54 56 57 59 60 61 61 62 63 63 62 60 59 57 56 55 55 56 57 57 58 58 58 57 57 57 58 57 57 57 57 56
56 57 58 58 58 59 60 60 59 60 61 61 61 62 62 62 63 62 61 58 52 51 54 57 61 65 63 59 62 67 66 62 61 60 57 55 53 52 51 50 47 48 50 51 53 57 58 59 60 61 62 62 61 60 58 57 55 54 54 54 55 56 56 56 56 56 56 56 57 57 57 57 56 56
54 55 56 56 57 58 59 59 58 58 60 60 61 61 60 61 62 61 59 53 47 49 54 54 56 63 64 60 62 67 67 64 62 59 58 57 54 51 49 47 46 46 47 48 48 53 57 58 59 60 60 61 60 59 58 56 54 53 52 53 54 54 55 55 55 55 55 55 55 56 56 56 55 55
51 52 53 54 55 57 58 58 58 58 58 59 60 60 59 60 60 60 60 55 48 46 51 56 58 62 63 61 62 66 67 66 64 60 58 57 53 49 47 45 46 47 48 47 46 49 54 57 58 59 59 59 59 58 57 55 53 52 51 52 53 53 54 54 54 54 54 54 54 53 54 54 54 54
48 49 50 51 52 53 55 57 57 58 58 59 60 59 59 59 60 60 60 58 54 48 48 53 56 59 63 62 63 67 67 66 66 60 55 54 51 48 47 45 45 46 47 47 46 47 51 54 56 58 58 57 57 56 55 53 51 50 50 51 52 53 53 53 53 53 52 52 52 51 52 52 52 52
44 45 45 47 48 49 50 53 55 57 58 59 60 60 59 59 59 60 60 58 56 52 48 48 48 52 60 63 64 67 66 65 65 58 52 52 52 48 46 46 46 45 45 46 45 46 48 51 53 55 56 56 55 53 52 51 50 50 50 52 52 52 52 52 52 51 50 50 50 50 50 50 50 49
41 41 42 43 45 46 47 49 51 54 56 58 60 61 61 60 58 59 60 60 57 55 53 50 45 45 54 62 64 66 65 64 61 55 50 52 52 49 46 46 46 45 44 43 43 44 46 48 51 53 54 53 52 51 50 49 49 50 51 51 52 51 51 50 49 49 48 48 48 48 48 48 48 47
38 39 40 41 43 44 44 45 47 49 51 53 57 60 62 62 61 59 60 60 58 57 57 54 48 45 50 58 63 64 63 59 55 51 50 52 52 50 46 45 44 44 43 41 41 43 45 47 49 50 51 51 50 50 49 49 49 50 51 50 50 49 48 48 47 47 46 46 47 47 47 46 46 45
36 38 41 44 46 45 43 42 43 46 47 49 51 55 58 62 62 60 60 60 57 56 58 57 54 48 47 53 60 60 56 52 49 49 50 52 53 49 45 44 43 43 43 40 40 44 45 45 46 48 47 47 48 48 48 48 48 49 49 48 47 46 46 45 45 45 45 45 46 45 45 44 43 43
36 40 44 48 51 51 46 43 43 43 44 44 46 49 53 57 60 59 60 59 57 57 59 60 58 52 47 50 55 51 47 46 48 49 50 51 51 47 44 43 42 43 44 42 41 44 44 41 42 44 43 43 45 45 45 45 46 46 45 44 44 44 44 43 43 43 43 44 44 43 43 42 42 42
39 42 46 50 53 52 48 45 43 43 42 41 41 44 48 52 54 55 57 58 58 58 58 59 59 55 50 48 47 44 44 47 48 47 47 49 49 46 44 44 44 43 43 42 41 43 39 36 39 41 39 40 42 42 42 42 43 42 41 41 41 41 41 41 41 41 41 41 41 41 40 40 40 41
41 43 46 50 50 48 45 44 43 42 40 38 38 40 44 46 48 51 54 56 56 55 56 56 55 52 47 44 42 43 46 48 46 45 47 49 48 44 42 43 42 41 41 39 39 39 35 33 37 38 36 37 39 38 38 38 38 37 37 38 38 38 38 38 38 39 39 39 38 38 38 38 39 40
42 40 40 43 44 42 42 43 41 36 34 35 36 37 39 40 41 43 46 49 49 49 50 51 48 45 43 41 40 43 46 47 45 46 49 49 45 41 41 41 40 38 37 36 37 37 33 33 36 35 33 34 35 34 34 35 34 35 35 35 36 36 36 36 36 36 36 36 36 36 36 37 38 39
40 38 37 39 40 39 38 37 34 30 30 31 32 34 34 34 35 37 39 43 44 42 42 43 42 41 40 39 40 43 46 47 47 48 49 46 41 40 40 39 38 37 36 35 36 35 32 32 34 31 30 31 31 31 32 32 32 33 32 33 34 34 34 34 34 34 34 34 34 34 34 35 36 37
38 38 39 39 38 36 34 31 28 26 26 27 29 30 29 28 30 32 35 40 42 42 41 41 41 39 37 38 41 44 45 46 47 47 46 43 40 40 40 38 37 36 36 35 34 32 30 31 31 28 28 30 29 30 31 30 30 30 31 32 33 32 31 31 31 31 31 31 31 32 33 33 34 36
37 38 40 40 35 32 31 30 28 26 25 25 26 25 25 25 26 27 31 35 38 41 43 41 37 36 36 38 42 44 43 44 46 45 44 42 39 38 38 38 37 36 35 33 30 29 29 29 28 27 28 29 28 28 28 28 28 29 30 31 30 29 28 28 28 29 29 29 30 30 31 32 33 34
38 39 40 38 32 27 26 27 28 26 24 24 23 22 24 24 24 25 28 32 34 37 40 38 32 32 36 38 41 42 41 42 44 44 41 39 38 37 38 37 36 35 33 30 28 27 28 27 26 27 27 27 26 26 26 26 27 28 28 28 27 26 25 25 26 26 27 27 28 29 29 30 31 32
38 39 37 32 26 23 24 25 25 22 20 20 20 20 21 21 21 22 25 28 32 35 38 38 34 32 36 38 39 40 39 40 42 42 38 36 36 37 37 35 34 33 31 28 27 27 27 26 26 26 26 25 25 25 25 25 26 26 26 25 24 23 23 23 24 24 25 25 26 26 27 28 29 31
38 38 31 23 17 17 19 17 15 13 15 17 16 15 16 18 20 22 24 27 31 35 38 39 36 34 35 37 37 37 37 38 38 37 35 34 35 35 34 33 33 32 30 27 27 26 26 26 26 25 24 23 24 25 25 24 24 24 23 22 22 21 20 21 22 22 22 22 23 24 25 26 28 28
36 31 23 17 15 15 12 10 11 12 14 15 13 13 15 19 22 24 27 28 31 35 38 38 35 33 33 33 34 34 34 35 34 33 32 32 34 34 33 33 33 32 29 27 26 26 26 25 24 23 23 23 23 24 23 23 23 22 21 20 19 18 18 19 19 18 19 20 21 22 24 25 26 27
31 22 17 16 15 13 10 12 12 11 11 9 8 11 16 21 24 26 28 29 32 36 36 33 31 29 27 27 28 29 31 31 31 30 31 33 34 34 34 34 33 30 27 25 25 25 25 24 23 22 22 22 22 22 22 22 22 21 20 18 17 16 17 16 15 16 18 19 20 21 22 23 24 25
23 17 16 15 13 10 10 13 12 9 7 2 2 8 15 19 22 24 27 31 33 33 30 27 25 24 23 24 26 28 29 30 30 31 32 33 34 34 34 32 30 27 26 25 25 25 25 24 23 22 22 21 21 21 22 22 21 19 18 16 15 15 15 14 13 14 16 17 18 19 20 20 21 23
15 17 16 11 14 12 11 13 10 7 5 4 4 11 16 18 20 22 23 25 26 25 23 22 22 23 24 25 27 29 30 30 31 32 31 32 32 32 31 29 27 26 26 26 25 25 25 23 22 21 21 21 21 21 21 21 19 18 16 15 14 13 12 12 12 12 13 14 15 16 17 18 19 21
12 15 7 13 15 10 9 9 6 5 7 9 10 14 16 16 17 18 19 20 20 20 20 22 23 25 26 27 29 30 30 30 31 31 31 31 31 30 29 28 27 27 27 26 25 25 24 22 22 22 22 21 22 22 21 21 19 17 15 13 12 12 11 11 10 10 11 11 12 13 14 16 17 17
12 7 7 15 10 5 6 6 4 5 8 12 13 12 12 13 13 13 14 16 16 17 19 20 23 25 26 27 28 29 29 30 31 31 30 30 29 29 29 28 27 27 26 24 23 23 23 23 24 23 23 22 22 22 22 21 19 16 14 13 11 11 10 9 8 8 9 9 10 11 11 12 13 13
9 4 12 12 8 6 7 7 7 8 8 11 13 12 12 13 13 13 12 12 13 16 18 20 22 24 25 25 26 27 29 31 31 30 29 28 28 29 29 27 27 26 24 22 22 23 23 25 26 24 24 23 22 21 21 20 17 16 14 12 10 10 9 8 8 7 7 7 7 8 9 9 10 11
4 8 11 9 8 8 8 9 9 8 9 11 11 10 11 12 14 14 14 13 13 15 17 19 21 22 22 23 24 27 29 30 29 28 28 29 29 28 27 27 26 25 23 22 22 23 25 27 27 26 25 24 23 21 20 18 17 15 14 11 10 10 9 7 7 6 6 6 6 6 8 10 12 12
4 10 9 7 8 8 7 9 9 8 9 10 9 8 10 13 14 15 15 14 13 14 15 17 18 19 20 22 24 27 28 27 27 28 29 29 29 28 27 26 25 23 22 22 23 25 27 28 28 27 26 25 23 21 20 18 17 16 13 11 10 9 7 6 5 4 5 6 5 5 7 11 15 16
7 10 8 8 9 8 6 8 8 8 9 10 9 9 12 14 16 17 15 14 13 12 13 13 14 16 19 22 24 26 25 25 26 28 29 29 29 28 26 25 23 22 21 23 25 26 28 28 28 28 26 25 23 22 21 19 18 16 13 12 11 9 8 6 4 4 4 5 5 5 5 8 14 18
7 9 8 6 6 4 3 4 5 6 7 8 9 11 12 14 16 16 14 13 11 10 10 11 13 16 18 20 22 23 24 26 28 29 30 30 29 27 25 23 21 21 22 25 27 28 29 30 29 28 26 24 23 22 21 19 18 16 14 13 12 10 9 6 4 4 4 3 4 4 4 5 9 14
5 7 7 5 4 4 4 5 5 6 6 6 7 10 12 14 15 15 13 10 9 9 10 12 15 17 18 20 22 23 25 27 28 29 29 28 26 24 23 21 21 21 24 26 28 29 30 30 29 27 25 24 23 23 21 19 18 16 15 15 14 12 10 7 5 4 3 2 3 4 4 4 5 7
5 6 6 7 6 6 6 5 6 6 6 6 6 7 9 12 15 15 12 9 10 11 11 12 15 18 20 22 24 25 26 26 26 26 25 24 23 22 21 20 20 22 24 26 27 28 29 29 27 26 25 25 24 23 22 20 19 17 17 17 16 14 12 8 6 5 4 2 2 3 3 4 4 4
3 5 5 6 6 7 7 6 6 6 7 8 7 7 6 10 15 15 11 10 11 11 11 13 15 17 20 22 24 24 24 24 24 24 23 22 22 21 20 20 20 22 23 24 25 27 27 26 26 26 26 25 24 23 22 21 20 18 17 17 17 16 13 9 7 6 5 3 2 3 3 2 2 2
2 3 4 6 6 6 6 6 6 6 6 8 9 9 5 6 11 14 12 11 11 11 12 13 15 17 20 22 22 22 22 21 21 21 21 22 22 21 20 20 20 20 21 22 24 25 26 26 27 28 27 26 24 23 22 21 19 18 17 17 17 16 14 10 8 7 6 4 3 3 3 1 1 1
6 5 5 6 6 6 6 5 6 6 5 6 10 11 6 5 11 15 14 12 12 12 12 14 16 18 20 20 20 20 19 19 19 20 20 21 21 21 21 20 20 20 21 22 24 25 25 26 28 27 26 25 24 24 22 21 19 18 18 17 16 15 13 12 9 8 7 5 4 3 2 1 2 3
7 8 8 8 7 7 6 5 4 4 3 6 11 10 7 9 15 17 15 14 13 12 12 14 16 18 19 18 18 18 18 18 19 20 21 22 22 22 22 21 20 20 21 22 23 24 25 26 26 25 24 23 24 23 22 21 20 19 19 17 16 14 14 13 11 9 8 7 5 4 3 2 3 4
4 7 9 10 10 8 7 5 3 2 4 10 12 10 10 14 17 16 15 15 14 13 13 15 16 17 18 18 18 18 18 18 18 19 20 21 21 21 21 21 20 20 21 22 23 24 24 25 25 24 23 23 23 22 22 22 22 21 20 19 17 15 15 14 12 11 10 9 7 5 4 3 3 4
Wind_Direction
270 269 268 267 267 266 266 265 264 264 264 264 264 263 263 264 265 265 265 265 264 264 264 263 262 260 258 256 256 257 257 257 257 256 256 256 255 254 253 252 251 251 251 251 252 253 253 252 252 251 250 250 250 250 250 250 251 251 250 250 250 249 249 249 249 249 249 250 250 250 250 251 251 250
270 269 268 267 266 265 265 264 264 263 262 262 262 262 262 262 262 263 264 265 264 263 263 263 263 262 260 256 255 255 256 256 255 255 255 255 255 254 253 251 251 251 250 250 251 251 252 252 252 251 250 249 249 249 250 250 250 250 250 249 249 249 249 248 248 248 248 249 250 250 250 250 251 251
270 269 267 266 265 265 264 263 263 262 261 261 261 261 261 261 262 262 263 263 263 262 261 262 262 263 262 259 254 253 255 255 255 255 255 254 254 254 253 251 250 250 250 250 250 251 251 252 252 251 250 249 248 248 248 249 249 249 250 249 249 249 249 248 248 248 248 248 249 249 250 250 250 251
269 268 267 266 265 264 263 262 261 261 260 260 260 259 259 260 260 261 261 261 262 261 260 260 260 260 261 261 257 253 253 254 254 254 255 254 254 254 253 251 249 249 249 250 250 251 251 251 251 251 250 249 248 247 247 248 248 248 249 250 249 249 249 249 249 248 248 248 248 248 249 250 250 251
269 268 267 266 265 264 262 261 260 260 260 260 259 258 258 258 258 259 260 261 261 260 259 258 258 257 258 259 258 255 253 253 254 254 254 255 254 254 254 252 250 248 249 249 249 250 251 251 251 250 250 249 248 247 246 246 247 248 249 249 249 249 249 249 249 249 248 248 248 248 249 250 250 250
270 268 266 265 264 264 263 261 260 259 258 258 258 258 257 256 256 257 258 260 261 260 259 258 256 255 255 255 256 256 254 253 254 254 254 255 255 254 253 253 251 249 248 248 248 249 249 250 250 250 249 248 247 246 246 245 246 247 248 249 250 249 249 249 249 249 248 248 248 248 248 249 249 249
271 269 267 265 264 263 262 262 261 259 257 257 257 257 257 256 255 255 255 258 260 260 258 256 254 252 252 253 254 255 254 254 254 254 254 255 256 256 255 254 253 250 248 247 247 247 248 249 249 250 249 248 247 246 245 245 245 247 248 249 250 250 249 249 248 248 247 247 247 247 248 248 248 249
273 271 269 267 265 263 262 261 261 260 259 257 256 256 256 256 255 254 253 254 257 260 258 255 253 251 249 250 253 254 254 254 254 254 254 255 256 257 258 257 254 252 249 247 246 246 246 247 248 248 249 248 247 245 244 244 245 246 248 249 249 249 249 248 247 246 246 246 247 247 248 248 248 248
274 273 271 269 267 265 263 262 260 260 259 258 257 256 255 256 256 255 254 253 253 256 257 255 254 251 248 247 250 253 253 252 253 254 254 255 256 257 259 259 257 253 250 247 246 246 246 246 246 247 247 247 246 245 244 243 244 245 247 248 249 248 248 246 246 245 245 246 247 247 248 248 248 248
275 274 273 271 270 268 266 264 262 261 260 259 257 256 255 255 255 255 254 254 252 252 254 256 255 252 248 245 246 249 251 251 252 254 255 255 255 256 257 259 259 257 253 249 246 245 245 245 245 245 246 246 245 244 243 243 244 246 247 248 248 248 247 246 246 245 246 246 247 247 248 248 249 249
274 273 272 271 269 268 267 266 264 262 260 259 258 256 255 254 254 254 253 252 250 251 252 253 253 252 249 245 243 246 248 250 250 252 254 254 254 256 258 261 263 261 256 252 247 244 243 244 244 245 244 245 245 244 244 244 245 246 247 248 249 248 248 247 246 247 247 247 248 248 249 249 250 250
273 272 271 270 269 268 268 266 265 263 261 259 257 256 254 252 252 252 251 248 246 249 251 250 250 251 249 245 243 243 244 247 248 248 251 254 256 259 260 260 262 261 257 253 248 245 243 242 242 243 243 244 244 244 244 245 245 246 247 248 249 249 248 248 248 248 248 249 249 250 250 251 251 251
272 271 271 270 269 269 268 266 265 263 261 260 258 256 253 251 250 249 249 247 244 243 248 250 249 250 248 243 243 242 241 244 247 247 249 254 258 260 260 259 259 258 257 253 249 245 243 241 241 242 243 243 243 244 244 245 245 246 248 248 249 249 249 249 249 249 249 250 250 250 251 251 251 251
276 276 276 275 273 271 270 268 265 263 260 258 257 256 253 251 249 248 247 246 242 238 241 246 247 247 246 242 241 242 241 241 245 247 248 253 256 258 260 261 258 256 254 252 250 247 244 242 241 241 241 242 243 244 244 245 245 246 247 248 249 249 249 249 250 250 250 251 251 251 251 251 251 252
286 286 286 284 281 278 275 273 270 266 262 259 256 255 253 251 248 246 245 244 241 235 234 239 241 242 243 240 239 241 241 240 243 245 247 251 254 256 258 260 259 256 253 251 250 248 245 243 242 241 241 242 242 243 244 244 244 244 245 247 248 249 249 250 250 250 250 250 250 251 251 251 252 252
297 296 294 292 288 283 280 278 276 271 266 262 257 253 252 250 247 244 243 243 241 236 232 234 236 237 239 239 237 239 240 239 241 243 245 249 252 255 257 258 258 257 254 249 248 247 245 243 242 242 241 241 241 242 242 242 242 243 245 247 249 249 249 249 250 250 250 250 250 250 251 252 253 253
305 304 304 301 295 290 287 283 281 276 270 264 259 255 251 249 246 243 241 240 240 236 232 232 234 236 238 236 236 237 238 237 238 240 243 247 251 254 257 258 255 253 251 247 245 244 243 242 242 241 241 241 241 240 240 241 242 243 245 247 249 249 249 248 248 248 249 249 249 250 251 252 252 253
304 306 305 300 296 294 293 289 285 282 276 267 260 255 251 248 245 242 239 237 236 233 230 231 233 237 237 235 234 235 235 234 236 238 241 245 250 254 257 255 250 247 245 243 242 242 242 242 243 242 241 242 242 240 240 241 242 243 245 246 247 247 248 248 247 247 247 248 249 249 250 251 252 252
303 303 299 295 293 293 293 289 286 284 280 270 260 254 251 248 244 240 237 234 232 230 229 231 234 238 238 234 231 230 229 229 232 235 239 244 248 251 253 249 244 241 241 241 241 242 242 244 244 242 240 241 240 239 240 240 241 243 244 245 245 246 246 247 246 246 247 247 248 248 249 250 251 251
302 297 293 293 294 294 290 286 285 284 279 270 261 254 250 247 242 238 235 231 229 228 228 230 235 238 235 231 228 226 224 225 228 233 238 242 245 249 251 247 242 240 241 241 243 244 243 243 244 242 240 240 239 238 239 239 240 242 242 243 244 244 245 245 245 245 245 246 246 247 248 249 250 251
298 295 296 297 297 293 289 287 286 280 271 265 260 255 250 246 241 238 234 229 226 225 226 230 235 236 232 227 226 224 222 224 228 232 237 242 245 250 252 247 241 240 240 240 242 243 242 242 243 242 240 239 238 237 237 238 239 239 240 242 243 243 243 243 243 243 244 244 245 246 247 248 249 251
299 301 305 303 299 295 292 291 287 275 264 259 257 254 251 245 238 233 229 225 220 217 220 227 232 232 230 226 223 222 223 225 229 233 239 243 246 250 251 244 238 238 238 236 237 239 239 240 241 240 238 236 235 235 235 235 237 238 239 241 241 241 241 240 241 242 243 244 245 246 247 248 249 251
303 307 306 303 301 297 294 293 287 271 260 259 256 251 245 238 232 228 224 220 215 209 211 221 226 226 224 222 219 219 223 226 229 234 240 244 245 248 247 239 234 236 235 233 236 238 237 237 236 233 232 233 232 232 233 234 236 238 238 239 239 239 239 240 241 242 243 244 245 246 248 249 250 251
310 309 304 301 300 295 291 291 284 268 256 258 256 241 227 224 225 223 221 219 216 210 210 217 222 219 216 216 217 219 222 226 230 235 239 243 246 246 241 234 232 234 233 231 233 235 234 233 231 228 228 229 230 232 234 234 236 236 237 237 237 237 238 239 241 242 243 244 245 246 247 248 249 250
312 309 304 300 297 293 290 286 279 267 253 249 244 227 218 219 219 219 221 221 216 213 213 214 214 211 210 212 217 220 223 228 234 237 239 243 245 240 233 230 232 233 232 230 229 228 227 226 224 223 225 228 230 233 234 234 234 234 234 234 234 235 236 238 240 241 243 244 245 246 247 248 248 249
314 313 307 302 298 297 294 283 272 259 242 231 226 220 219 220 218 221 225 221 215 213 212 208 205 204 206 211 217 221 224 230 236 239 240 243 240 231 227 229 231 231 230 228 226 223 221 219 219 220 223 226 230 233 233 232 231 231 231 231 231 232 234 237 239 241 243 244 245 246 247 247 248 249
319 315 310 307 306 302 294 277 252 228 208 204 211 220 224 223 221 223 225 223 219 213 205 200 199 203 207 212 218 223 227 232 238 243 245 240 229 223 224 227 228 227 226 223 220 218 216 216 217 219 221 224 228 231 231 230 228 227 227 228 228 229 231 235 239 241 244 246 247 248 248 248 249 250
321 315 308 305 306 300 281 239 205 194 192 199 216 232 230 224 220 219 221 220 213 203 196 195 199 204 210 216 222 228 233 237 242 244 239 227 218 218 223 224 225 226 224 219 215 213 212 213 216 218 220 222 225 227 227 226 224 223 223 224 225 225 228 234 240 244 247 249 249 250 250 250 250 250
320 315 305 291 285 283 253 210 195 193 194 206 241 243 225 218 214 211 210 205 198 193 192 195 200 207 215 223 230 235 239 241 240 233 222 214 213 217 219 220 221 221 217 214 213 211 210 212 215 216 218 220 221 220 220 221 220 218 218 221 223 225 228 234 240 245 249 250 251 252 253 253 253 253
312 311 307 281 254 242 217 195 187 186 180 175 284 223 206 202 199 195 193 192 191 192 194 197 204 214 222 229 235 237 239 237 228 217 211 212 214 215 216 217 218 214 209 207 208 210 211 212 213 214 215 216 214 213 214 214 213 212 213 216 221 226 230 235 238 243 248 252 254 256 256 256 256 255
314 319 310 249 207 197 187 181 183 184 153 105 136 175 180 181 182 183 186 189 191 194 198 204 213 221 225 229 231 231 230 227 218 209 209 212 213 213 214 214 211 208 205 203 204 209 210 209 208 210 210 208 207 206 207 206 206 206 208 212 218 224 230 235 238 242 249 253 256 259 259 259 258 257
338 335 295 193 182 177 170 172 188 182 143 132 148 164 169 173 178 182 186 189 193 199 207 214 221 226 227 228 228 225 223 219 213 208 207 209 209 209 209 207 205 204 203 201 204 209 209 204 204 204 202 201 200 199 199 199 199 200 202 207 215 221 226 232 240 246 252 255 258 261 261 261 260 256
359 1 170 167 159 154 162 172 202 196 161 153 159 165 167 173 182 187 191 195 202 211 219 225 230 232 232 229 226 221 217 212 209 206 205 204 204 204 203 201 201 203 202 201 204 208 205 201 200 198 196 196 195 194 194 193 192 194 197 201 209 215 218 225 233 242 249 255 260 264 263 263 261 254
15 120 162 152 131 136 162 184 210 214 192 176 175 178 178 181 191 200 207 212 216 221 227 230 231 233 231 227 221 215 208 206 205 203 201 200 201 200 199 198 200 201 201 201 203 205 202 199 197 193 193 194 193 191 191 189 188 191 194 197 202 206 210 215 219 226 238 246 255 263 262 251 244 244
50 155 156 137 127 141 160 182 196 202 200 197 197 197 194 195 203 211 218 224 226 228 231 231 230 230 224 215 210 206 203 202 201 199 196 196 196 196 195 195 198 200 199 199 201 201 200 197 194 191 190 192 191 189 188 186 184 188 192 194 199 203 206 211 213 218 233 241 245 255 254 238 227 229
131 160 149 141 158 167 174 185 188 186 190 198 206 212 211 214 220 224 227 230 232 236 240 237 230 221 210 201 199 200 199 198 197 194 193 192 192 192 192 193 196 198 197 197 199 199 197 195 192 189 189 190 188 187 188 186 184 186 190 193 197 200 202 208 218 228 238 241 240 245 248 237 228 226
157 163 156 162 179 186 190 195 197 198 199 200 203 205 207 215 224 226 226 230 234 239 241 232 216 203 196 194 195 196 194 192 190 189 190 190 190 190 190 192 195 196 196 196 197 197 195 193 190 188 188 189 186 185 188 188 185 186 191 195 196 197 197 204 226 245 245 243 241 243 251 244 235 232
164 173 172 174 185 196 210 221 227 232 227 219 213 207 202 208 217 221 223 229 235 231 222 205 188 180 182 186 188 187 185 183 184 187 189 189 188 187 188 191 193 193 195 196 195 194 192 191 189 187 186 187 186 185 188 191 190 189 192 195 196 196 196 197 214 237 247 261 258 250 261 261 245 239
172 192 200 214 236 254 270 269 256 245 242 234 223 215 209 208 213 217 222 224 216 208 200 187 173 167 170 175 176 177 179 181 183 186 187 186 185 185 188 190 190 192 195 197 194 192 191 190 188 186 185 186 188 187 189 194 196 195 196 196 196 197 196 195 207 221 229 269 278 260 261 271 264 252
166 189 208 225 235 242 248 245 234 232 240 242 226 212 210 210 211 214 217 207 194 194 193 183 173 170 171 173 175 178 181 182 183 183 183 182 184 186 187 188 190 193 196 197 194 192 191 189 186 185 186 188 191 190 191 195 198 199 200 199 199 201 202 202 209 211 198 204 254 252 251 265 274 269
166 174 188 199 205 212 217 221 225 228 234 235 217 192 197 213 211 207 202 191 188 192 189 182 178 174 172 175 179 180 180 180 180 180 180 182 184 185 185 186 190 194 195 195 193 191 190 187 185 187 189 191 193 194 195 198 199 200 201 200 201 206 209 209 211 208 195 189 210 222 229 252 265 258
237 201 195 197 204 213 221 236 249 242 235 227 205 183 184 214 204 191 181 176 180 184 182 180 177 172 170 173 176 175 175 176 177 179 182 184 184 183 182 184 189 191 190 190 189 189 187 186 188 192 194 193 195 198 200 202 202 201 202 202 202 205 210 212 213 209 198 186 178 191 209 241 249 208
258 248 233 226 229 234 243 262 267 256 245 219 194 186 188 185 172 166 162 162 170 178 180 177 172 168 168 170 170 168 169 172 175 178 181 182 183 183 181 182 184 184 184 185 185 186 186 188 192 197 197 196 198 201 202 204 206 205 204 203 201 201 206 212 214 209 199 188 168 158 165 145 137 152
258 249 245 243 240 237 243 256 262 258 233 185 177 179 176 159 155 155 154 155 163 176 180 173 169 169 168 167 164 163 164 166 171 175 177 178 182 184 184 181 179 177 179 183 184 186 187 190 195 199 200 200 202 203 203 206 209 209 208 208 203 199 202 209 211 206 200 193 180 161 151 139 138 141
279 250 242 239 236 232 232 232 229 213 171 162 161 160 156 153 153 153 152 154 161 170 171 166 164 163 159 156 154 154 155 158 164 170 174 179 183 186 186 183 179 175 177 181 185 188 190 192 195 198 199 201 204 204 203 206 210 211 212 213 208 203 205 208 208 204 201 196 187 175 166 156 146 145